CW2265 Weather Reports


Display with metric or nautical units.
time (UTC)temp
F
wind
direction
speed
MPH
gust
MPH
rain 1hr
in
rain 24hr
in
rain mn
in
humidity
%
barometer
mb
20170526071505 51 317 1.0 5.0 0.01 1.20 0.01 96 1000.6
20170526071008 51 317 2.0 5.0 0.01 1.21 0.01 96 1000.6
20170526070505 51 317 2.0 3.0 0.01 1.22 0.01 96 1000.6
20170526070007 51 317 1.0 5.0 0.01 1.23 0.01 96 1000.7
20170526065007 50 317 2.0 5.0 0.01 1.24 0.01 96 1000.7
20170526064505 50 317 1.0 3.0 0.01 1.25 0.01 96 1000.7
20170526064008 50 317 0.0 1.0 0.01 1.27 0.01 96 1000.7
20170526063505 50 317 0.0 2.0 0.01 1.28 0.01 96 1000.7
20170526062505 50 317 2.0 5.0 0.00 1.29 0.00 96 1000.7
20170526061505 50 317 2.0 5.0 0.00 1.32 0.00 96 1000.7
20170526061008 50 317 2.0 3.0 0.00 1.34 0.00 96 1000.7
20170526053505 50 317 1.0 5.0 0.00 1.43 0.00 96 1000.3
20170526053007 50 317 4.0 6.0 0.00 1.43 0.00 96 1000.3
20170526052505 50 316 0.0 2.0 0.00 1.44 0.00 96 1000.2
20170526052007 50 316 2.0 5.0 0.00 1.45 0.00 96 1000.2
20170526051505 50 316 1.0 5.0 0.00 1.45 0.00 96 1000.2
20170526051008 50 316 2.0 7.0 0.00 1.45 0.00 96 1000.0
20170526050505 50 319 4.0 7.0 0.00 1.45 0.00 96 1000.0
20170526045007 50 322 4.0 6.0 0.00 1.45 0.00 96 999.8
20170526044505 50 323 3.0 6.0 0.00 1.45 0.00 96 999.8
20170526044007 50 325 2.0 6.0 0.00 1.45 0.00 96 999.8
20170526043504 50 324 3.0 6.0 0.00 1.45 0.00 96 999.7
20170526042505 51 313 2.0 7.0 0.00 1.45 0.00 96 999.7
20170526042007 51 313 2.0 6.0 0.00 1.45 0.00 96 999.7
20170526041505 51 313 3.0 7.0 0.00 1.45 0.00 96 999.7
20170526041008 51 319 4.0 7.0 0.00 1.45 0.00 96 999.7
20170526040009 51 313 3.0 5.0 0.00 1.45 0.00 96 999.7
20170526035008 51 313 2.0 3.0 0.00 1.45 1.45 96 999.5
20170526034505 51 313 3.0 6.0 0.00 1.45 1.45 96 999.4
20170526034008 51 313 3.0 7.0 0.00 1.45 1.45 96 999.3
20170526033008 52 314 2.0 7.0 0.00 1.45 1.45 96 999.3
20170526031008 53 336 3.0 6.0 0.00 1.45 1.45 96 999.3
20170526030007 53 355 2.0 5.0 0.00 1.45 1.45 96 999.2
20170526025505 53 51 2.0 3.0 0.00 1.45 1.45 96 999.2
20170526025007 53 53 1.0 3.0 0.00 1.45 1.45 96 999.1
20170526015007 53 53 0.0 0.0 0.00 1.45 1.45 96 999.1
20170526014505 53 53 0.0 0.0 0.00 1.45 1.45 96 998.7
20170526014008 53 53 0.0 0.0 0.00 1.46 1.45 96 998.7
20170526013008 52 53 0.0 0.0 0.00 1.46 1.45 96 998.7
20170526012505 52 53 0.0 0.0 0.00 1.46 1.45 96 998.7
20170526012007 52 53 0.0 0.0 0.00 1.46 1.45 96 998.7
20170526011505 52 53 0.0 0.0 0.00 1.46 1.45 96 998.6
20170526000506 53 53 0.0 0.0 0.00 1.46 1.45 96 997.8
20170525235505 53 53 0.0 0.0 0.00 1.46 1.45 96 997.7
20170525235007 53 53 0.0 0.0 0.00 1.46 1.45 96 997.7
20170525234505 53 53 0.0 2.0 0.00 1.46 1.45 96 997.7
20170525234007 53 53 0.0 0.0 0.00 1.46 1.45 96 997.7
20170525233505 53 53 0.0 1.0 0.00 1.46 1.45 96 997.6
20170525230008 53 53 0.0 2.0 0.00 1.46 1.45 96 997.3
20170525225505 53 53 0.0 1.0 0.00 1.46 1.45 96 997.3
20170525225007 53 53 0.0 0.0 0.00 1.46 1.45 96 997.3
20170525224506 53 53 0.0 0.0 0.00 1.46 1.45 96 997.2
20170525224011 53 53 0.0 0.0 0.00 1.46 1.45 96 997.2
20170525223506 53 53 0.0 1.0 0.00 1.46 1.45 96 997.1
20170525223011 53 53 0.0 1.0 0.00 1.46 1.45 96 997.1
20170525222507 53 53 0.0 2.0 0.00 1.46 1.45 96 997.1
20170525220515 53 54 1.0 3.0 0.00 1.46 1.45 96 997.1
20170525215007 53 54 0.0 1.0 0.00 1.46 1.45 96 997.1
20170525214504 53 54 0.0 2.0 0.00 1.46 1.45 96 997.1
20170525213505 53 54 0.0 1.0 0.00 1.46 1.45 95 997.1
20170525213008 53 54 0.0 3.0 0.00 1.46 1.45 95 997.1
20170525212504 53 54 0.0 1.0 0.00 1.46 1.45 96 997.1
20170525212007 53 54 0.0 3.0 0.00 1.46 1.45 96 997.1
20170525211007 53 54 1.0 3.0 0.00 1.46 1.45 96 997.1
20170525210505 54 54 1.0 3.0 0.00 1.46 1.45 96 997.1
20170525210007 54 52 1.0 3.0 0.00 1.46 1.45 96 997.1
20170525205505 54 59 1.0 3.0 0.01 1.46 1.45 96 997.1
20170525205007 54 59 0.0 2.0 0.01 1.46 1.45 96 997.1
20170525204505 54 60 0.0 2.0 0.01 1.46 1.45 96 997.1
20170525204007 54 60 1.0 3.0 0.01 1.46 1.45 96 997.1
20170525203505 54 60 0.0 2.0 0.01 1.46 1.45 96 997.1
20170525203008 54 62 1.0 2.0 0.01 1.46 1.45 96 997.1
20170525202504 54 62 0.0 3.0 0.01 1.46 1.45 96 997.1
20170525202010 54 62 1.0 2.0 0.01 1.46 1.45 96 997.4
20170525201505 54 61 0.0 3.0 0.01 1.46 1.45 96 997.4
20170525201007 54 61 0.0 2.0 0.01 1.46 1.45 96 997.4
20170525194505 54 27 0.0 2.0 0.00 1.46 1.44 96 997.5
20170525194007 54 27 0.0 1.0 0.00 1.46 1.44 96 997.5
20170525193504 54 27 0.0 1.0 0.00 1.46 1.44 96 997.5
20170525193008 54 27 0.0 2.0 0.00 1.46 1.44 96 997.5
20170525192008 54 27 0.0 3.0 0.00 1.46 1.44 96 997.6
20170525191505 54 27 0.0 1.0 0.00 1.46 1.44 96 997.6
20170525191007 54 27 0.0 5.0 0.00 1.46 1.44 96 997.6
20170525190505 54 34 0.0 1.0 0.00 1.46 1.44 96 997.6
20170525190008 54 34 0.0 2.0 0.00 1.46 1.44 96 997.6
20170525185505 54 34 0.0 2.0 0.00 1.46 1.44 96 997.6
20170525185007 54 34 0.0 1.0 0.01 1.46 1.44 96 997.9
20170525184505 54 34 1.0 2.0 0.01 1.46 1.44 96 997.9
20170525183505 54 50 0.0 3.0 0.01 1.46 1.44 96 997.9
20170525183007 54 50 0.0 3.0 0.01 1.46 1.44 96 998.1
20170525182007 54 51 0.0 3.0 0.01 1.46 1.44 96 998.1
20170525181007 54 51 1.0 3.0 0.02 1.46 1.44 96 998.1
20170525180505 54 51 0.0 1.0 0.02 1.46 1.44 96 998.2
20170525172504 54 51 0.0 2.0 0.09 1.45 1.43 96 998.6
20170525171008 54 50 0.0 2.0 0.14 1.44 1.43 96 998.6
20170525170505 54 50 0.0 2.0 0.15 1.44 1.43 96 998.6
20170525170007 54 50 0.0 1.0 0.17 1.44 1.43 96 998.7
20170525165505 54 50 0.0 1.0 0.18 1.44 1.43 96 998.7
20170525165007 54 50 0.0 0.0 0.19 1.43 1.42 96 998.8
20170525164505 54 50 0.0 1.0 0.20 1.43 1.41 96 999.1
20170525164007 54 50 0.0 2.0 0.20 1.41 1.39 96 999.1
20170525163504 54 50 0.0 0.0 0.21 1.39 1.38 96 999.1
20170525163008 54 50 0.0 0.0 0.22 1.38 1.36 96 999.1
20170525162010 54 50 0.0 0.0 0.22 1.33 1.31 96 999.1
20170525161505 54 50 0.0 3.0 0.23 1.31 1.30 96 999.1
20170525160505 54 58 0.0 1.0 0.25 1.29 1.28 96 999.1
20170525160006 54 58 0.0 2.0 0.26 1.28 1.26 96 999.1
20170525155504 54 58 0.0 1.0 0.27 1.26 1.24 95 999.1
20170525155007 54 58 0.0 1.0 0.28 1.24 1.23 95 999.2
20170525154504 54 58 0.0 3.0 0.28 1.22 1.20 95 999.2
20170525154007 54 58 0.0 1.0 0.31 1.20 1.19 95 999.3
20170525153504 54 58 0.0 1.0 0.30 1.18 1.17 95 999.3
20170525153007 54 58 0.0 0.0 0.32 1.16 1.14 95 999.3
20170525152504 54 58 0.0 1.0 0.35 1.14 1.13 95 999.3
20170525152007 54 58 0.0 2.0 0.34 1.11 1.09 95 999.3
20170525151504 54 58 0.0 2.0 0.33 1.09 1.07 95 999.3
20170525151008 54 58 0.0 2.0 0.33 1.07 1.06 95 999.4
20170525150505 54 58 0.0 0.0 0.31 1.04 1.02 95 999.4
20170525150007 54 58 0.0 1.0 0.31 1.02 1.00 95 999.4
20170525145505 54 58 0.0 1.0 0.31 0.99 0.98 95 999.3
20170525145007 54 58 0.0 1.0 0.30 0.97 0.95 95 999.3
20170525144504 54 58 0.0 2.0 0.28 0.94 0.92 95 999.2
20170525143505 54 58 0.0 2.0 0.26 0.88 0.87 95 999.2
20170525143007 54 59 0.0 2.0 0.22 0.83 0.82 95 999.2
20170525142505 54 59 0.0 1.0 0.19 0.80 0.78 95 999.4
20170525142007 54 59 0.0 0.0 0.17 0.77 0.76 95 999.4
20170525141504 54 59 0.0 1.0 0.16 0.76 0.74 95 999.6
20170525140505 54 59 0.0 0.0 0.14 0.72 0.71 95 999.6
20170525140006 54 59 0.0 0.0 0.14 0.71 0.69 95 999.7
20170525135505 54 59 0.0 0.0 0.12 0.69 0.67 95 999.7
20170525135007 54 59 0.0 0.0 0.11 0.67 0.65 95 999.7
20170525134504 54 59 0.0 0.0 0.10 0.65 0.64 95 999.7
20170525134007 54 59 0.0 1.0 0.09 0.64 0.62 95 999.7
20170525133505 54 59 0.0 1.0 0.09 0.62 0.61 95 999.7
20170525132505 54 59 0.0 0.0 0.08 0.61 0.59 95 999.7
20170525131007 54 59 0.0 1.0 0.08 0.59 0.57 95 999.7
20170525130504 54 59 0.0 1.0 0.07 0.58 0.57 95 999.7
20170525130007 54 59 0.0 0.0 0.06 0.57 0.55 95 999.7
20170525125007 54 59 0.0 2.0 0.06 0.56 0.54 95 999.7
20170525124505 54 59 0.0 1.0 0.06 0.55 0.54 95 999.7
20170525124007 54 59 0.0 2.0 0.06 0.54 0.53 95 999.8
20170525123505 54 59 0.0 2.0 0.06 0.54 0.52 95 999.8
20170525123007 54 59 0.0 1.0 0.06 0.54 0.52 95 999.8
20170525122505 54 59 0.0 1.0 0.06 0.53 0.51 95 999.8
20170525122007 54 59 0.0 2.0 0.07 0.53 0.51 95 999.8
20170525121504 54 59 0.0 1.0 0.06 0.52 0.50 95 999.8
20170525121007 54 59 0.0 3.0 0.06 0.51 0.50 95 999.8
20170525120505 54 59 0.0 2.0 0.06 0.51 0.50 95 999.8
20170525120007 55 59 0.0 2.0 0.06 0.50 0.49 95 999.9
20170525115505 55 59 0.0 2.0 0.06 0.50 0.48 95 999.9
20170525115008 55 59 0.0 3.0 0.06 0.50 0.48 95 999.9
20170525114007 55 66 0.0 3.0 0.06 0.48 0.46 95 1000.0
20170525113505 55 83 0.0 2.0 0.06 0.48 0.46 95 1000.0
20170525113007 55 83 0.0 2.0 0.06 0.47 0.46 95 999.9
20170525112505 55 83 0.0 2.0 0.06 0.46 0.45 95 999.9
20170525112012 55 83 0.0 1.0 0.06 0.46 0.44 95 1000.2
20170525111505 56 84 0.0 1.0 0.07 0.46 0.44 95 1000.2
20170525111007 56 84 0.0 0.0 0.09 0.46 0.44 95 1000.2
20170525110505 56 84 0.0 0.0 0.09 0.45 0.43 95 1000.2
20170525110009 56 81 0.0 0.0 0.09 0.45 0.43 95 1000.2
20170525105505 56 298 0.0 0.0 0.09 0.44 0.43 95 1000.1
20170525105007 56 298 0.0 0.0 0.09 0.43 0.42 95 1000.1
20170525104504 56 298 0.0 0.0 0.09 0.43 0.41 95 1000.1
20170525095505 56 298 0.0 0.0 0.02 0.35 0.33 95 1000.2
20170525095011 56 298 0.0 0.0 0.02 0.35 0.33 95 1000.2
20170525094505 56 298 0.0 0.0 0.02 0.34 0.32 95 1000.2
20170525094007 56 298 0.0 0.0 0.02 0.34 0.32 95 1000.2
20170525093505 55 298 0.0 0.0 0.02 0.34 0.32 95 1000.2
20170525093013 55 298 0.0 1.0 0.02 0.34 0.32 95 1000.3
20170525092007 55 298 0.0 0.0 0.02 0.33 0.31 95 1000.3
20170525091009 55 298 0.0 0.0 0.02 0.33 0.31 95 1000.6
20170525090007 54 298 0.0 0.0 0.01 0.32 0.31 95 1000.6
20170525085505 54 298 0.0 0.0 0.01 0.32 0.31 95 1000.6
20170525085007 54 298 0.0 0.0 0.01 0.32 0.31 95 1000.7
20170525084505 54 298 0.0 0.0 0.01 0.32 0.31 95 1000.7
20170525084007 54 298 0.0 0.0 0.02 0.32 0.31 95 1000.7
20170525083505 54 298 0.0 0.0 0.02 0.32 0.31 95 1000.7
20170525083007 54 298 0.0 0.0 0.04 0.32 0.31 95 1000.8
20170525082504 54 298 0.0 0.0 0.04 0.32 0.31 95 1000.8
20170525082007 54 298 0.0 0.0 0.04 0.31 0.30 95 1000.8
20170525081505 54 298 0.0 0.0 0.05 0.31 0.30 95 1000.8
20170525081007 54 298 0.0 0.0 0.06 0.31 0.30 94 1000.8
20170525080504 53 298 0.0 0.0 0.06 0.31 0.30 94 1000.8
20170525080007 53 298 0.0 0.0 0.07 0.31 0.30 94 1000.8
20170525075504 53 298 0.0 0.0 0.07 0.31 0.30 94 1000.8
20170525074007 53 298 0.0 0.0 0.09 0.31 0.29 94 1001.0
20170525073504 53 298 0.0 0.0 0.11 0.31 0.29 94 1001.0
20170525073007 53 298 0.0 0.0 0.10 0.28 0.27 94 1001.0
20170525072504 53 298 0.0 0.0 0.11 0.28 0.27 94 1001.0
20170525072007 53 298 0.0 0.0 0.12 0.28 0.26 94 1001.0